Starlink 3366

operational
NORAD ID: 51104 Int'l Des: 2022-005 Owner: SPXS Country: US Constellation: starlink
LEOCIRCULAR

About Starlink 3366

Description loading...

Live Position

Loading 3D Globe...

Upcoming Passes

Altitude History

Altitude vs Time

uPlot chart will show altitude changes over time

Two-Line Element Set

1 51104U 22005A 26036.28189849 .00000134 00000-0 26505-4 0 9996
2 51104 53.2176 74.6084 0001455 92.3258 267.7901 15.08831069223987
Epoch: Feb 5, 2026 • Age: 5 hours

Current Status

Altitude 545.2 km
Velocity 7.60 km/s
Sub-Earth Point 52.79°N, 139.78°W
Launch Date Jan 19, 2022
Age 4 years
Type internet

Technical Details

Classification Payload
Mass 297.00 kg
Dry Mass 275.00 kg
Total Mass 297.00 kg
Length 0.20 m
Diameter 2.80 m
Span 9.00 m
Shape Box + pan
Manufacturer SPXS
Bus Type Starlink
Phase Status In Orbit
Owner/State SPXS/US

Large Constellations

Loading constellations...